Ocala, FL

3:20 PM EDT on July 22, 2017 (GMT -0400)
Ocala Regional-Taylor

Weather History for KOCF - August, 2013

Change the Weather History Date:

Saturday, August 10, 2013

  Actual Average Record
Temperature  
Mean Temperature 81 °F -  
Max Temperature 91 °F 88 °F 95 °F (2007)
Min Temperature 71 °F 70 °F 66 °F (2002)
Cooling Degree Days 16    
Growing Degree Days 31 (Base 50)    
Moisture  
Dew Point 70 °F    
Average Humidity 76    
Maximum Humidity 88    
Minimum Humidity 49    
Precipitation  
Precipitation 0.01 in - - ()
Sea Level Pressure  
Sea Level Pressure 30.10 in    
Wind  
Wind Speed 1 mph (ESE)    
Max Wind Speed 8 mph    
Max Gust Speed -    
Visibility 10 miles    
Events      
Averages and records for this station are not official NWS values.
T = Trace of Precipitation, MM = Missing Value Source: NWS Daily Summary

Daily Weather History Graph

Daily Weather History Graph

Search for Another Location

Airport or City:

Trip Planner

Search our weather history database for the weather conditions in past years. The results will help you decide how hot, cold, wet, or windy it might be!

Date:

Astronomy

Aug. 10, 2013 Rise Set
Actual Time 6:54 AM EDT 8:13 PM EDT
Civil Twilight 6:29 AM EDT 8:38 PM EDT
Nautical Twilight 5:59 AM EDT 9:08 PM EDT
Astronomical Twilight 5:28 AM EDT 9:39 PM EDT
Moon 10:17 AM EDT (8/10) 10:19 PM EDT (8/10)
Length of Visible Light 14h 08m
Length of Day
13h 18m
Waxing Crescent, 14% of the Moon is Illuminated
Aug 10
Waxing Crescent
Aug 14
First Quarter
Aug 20
Full
Aug 28
Last Quarter
Sep 5
New

Hourly Weather History & Observations

Time (EDT) Temp. Heat Index Dew Point Humidity Pressure Visibility Wind Dir Wind Speed Gust Speed Precip Events Conditions
12:15 AM 73.4 °F - 69.8 °F 88% 30.08 in 10.0 mi Calm Calm - N/A   Clear
12:35 AM 73.4 °F - 69.8 °F 88% 30.08 in 10.0 mi Calm Calm - N/A   Clear
12:55 AM 73.4 °F - 69.8 °F 88% 30.09 in 10.0 mi Calm Calm - N/A   Clear
1:15 AM 73.4 °F - 69.8 °F 88% 30.09 in 10.0 mi Calm Calm - N/A   Clear
1:35 AM 73.4 °F - 69.8 °F 88% 30.09 in 10.0 mi Calm Calm - N/A   Clear
1:55 AM 73.4 °F - 69.8 °F 88% 30.09 in 10.0 mi Calm Calm - N/A   Clear
2:15 AM 73.4 °F - 69.8 °F 88% 30.09 in 10.0 mi Calm Calm - N/A   Clear
2:35 AM 73.4 °F - 69.8 °F 88% 30.09 in 10.0 mi Calm Calm - N/A   Clear
2:55 AM 73.4 °F - 69.8 °F 88% 30.09 in 10.0 mi Calm Calm - N/A   Clear
3:15 AM 73.4 °F - 68.0 °F 83% 30.08 in 10.0 mi Calm Calm - N/A   Clear
3:35 AM 73.4 °F - 68.0 °F 83% 30.08 in 10.0 mi Calm Calm - N/A   Clear
3:55 AM 73.4 °F - 68.0 °F 83% 30.08 in 10.0 mi Calm Calm - N/A   Clear
4:15 AM 73.4 °F - 68.0 °F 83% 30.09 in 10.0 mi Calm Calm - N/A   Clear
4:35 AM 73.4 °F - 68.0 °F 83% 30.09 in 10.0 mi Calm Calm - N/A   Clear
4:55 AM 73.4 °F - 68.0 °F 83% 30.08 in 10.0 mi Calm Calm - N/A   Clear
5:15 AM 71.6 °F - 68.0 °F 88% 30.08 in 10.0 mi Calm Calm - N/A   Clear
5:35 AM 71.6 °F - 68.0 °F 88% 30.09 in 9.0 mi Calm Calm - N/A   Clear
5:55 AM 71.6 °F - 66.2 °F 83% 30.09 in 9.0 mi Calm Calm - N/A   Clear
6:15 AM 71.6 °F - 66.2 °F 83% 30.09 in 10.0 mi Calm Calm - 0.01 in   Clear
6:35 AM 71.6 °F - 66.2 °F 83% 30.09 in 10.0 mi Calm Calm - 0.01 in   Clear
6:50 AM 71.6 °F - 66.2 °F 83% 30.09 in 10.0 mi Calm Calm - N/A   Clear
7:50 AM 73.4 °F - 68.0 °F 83% 30.11 in 10.0 mi Calm Calm - N/A   Clear
8:50 AM 78.8 °F - 71.6 °F 78% 30.13 in 10.0 mi SSE 5.8 mph - N/A   Clear
9:50 AM 80.6 °F 84.6 °F 71.6 °F 74% 30.14 in 10.0 mi SSE 4.6 mph - N/A   Scattered Clouds
10:50 AM 82.4 °F 88.2 °F 73.4 °F 74% 30.15 in 10.0 mi SSE 4.6 mph - N/A   Scattered Clouds
11:50 AM 86.0 °F 93.4 °F 73.4 °F 66% 30.15 in 10.0 mi South 6.9 mph - N/A   Scattered Clouds
12:50 PM 87.8 °F 95.6 °F 73.4 °F 62% 30.15 in 10.0 mi SE 6.9 mph - N/A   Mostly Cloudy
1:50 PM 89.6 °F 96.2 °F 71.6 °F 55% 30.14 in 10.0 mi SE 5.8 mph - N/A   Mostly Cloudy
2:50 PM 89.6 °F 94.7 °F 69.8 °F 52% 30.11 in 10.0 mi SSE 6.9 mph - N/A   Mostly Cloudy
3:50 PM 91.4 °F 98.4 °F 71.6 °F 52% 30.10 in 10.0 mi SSE 8.1 mph - N/A   Scattered Clouds
4:50 PM 91.4 °F 96.8 °F 69.8 °F 49% 30.06 in 10.0 mi SE 3.5 mph - N/A   Partly Cloudy
5:50 PM 91.4 °F 96.8 °F 69.8 °F 49% 30.06 in 10.0 mi South 5.8 mph - N/A   Partly Cloudy
6:50 PM 86.0 °F 91.8 °F 71.6 °F 62% - 10.0 mi East 4.6 mph - N/A   Partly Cloudy
7:55 PM 84.2 °F 89.6 °F 71.6 °F 66% 30.08 in 10.0 mi NE 3.5 mph - N/A   Partly Cloudy
8:15 PM 82.4 °F 87.2 °F 71.6 °F 70% 30.09 in 10.0 mi NE 3.5 mph - N/A   Partly Cloudy
8:35 PM 82.4 °F 87.2 °F 71.6 °F 70% 30.09 in 10.0 mi NE 4.6 mph - N/A   Clear
8:55 PM 82.4 °F 87.2 °F 71.6 °F 70% 30.10 in 10.0 mi NE 3.5 mph - N/A   Clear
9:15 PM 80.6 °F 84.6 °F 71.6 °F 74% 30.11 in 10.0 mi NE 4.6 mph - N/A   Clear
9:35 PM 80.6 °F 84.6 °F 71.6 °F 74% 30.11 in 10.0 mi NE 3.5 mph - N/A   Scattered Clouds
9:55 PM 80.6 °F 84.6 °F 71.6 °F 74% 30.11 in 10.0 mi NE 3.5 mph - N/A   Mostly Cloudy
10:15 PM 80.6 °F 84.6 °F 71.6 °F 74% 30.12 in 10.0 mi Calm Calm - N/A   Mostly Cloudy
10:35 PM 80.6 °F 84.6 °F 71.6 °F 74% 30.13 in 10.0 mi ENE 3.5 mph - N/A   Clear
10:55 PM 80.6 °F 84.6 °F 71.6 °F 74% 30.13 in 10.0 mi East 4.6 mph - N/A   Clear
11:15 PM 80.6 °F 84.6 °F 71.6 °F 74% 30.13 in 10.0 mi East 3.5 mph - N/A   Clear
11:35 PM 80.6 °F 84.6 °F 71.6 °F 74% 30.14 in 10.0 mi Calm Calm - N/A   Partly Cloudy
11:55 PM 80.6 °F 83.9 °F 69.8 °F 70% 30.14 in 10.0 mi ESE 3.5 mph - N/A   Partly Cloudy